Gainesville, FL

10:40 PM EDT on September 24, 2016 (GMT -0400)
Gainesville Regional

Weather History for KGNV - June, 2013

Change the Weather History Date:

Thursday, June 20, 2013

  Actual Average Record
Temperature  
Mean Temperature 83 °F 80 °F  
Max Temperature 93 °F 90 °F 100 °F (1990)
Min Temperature 73 °F 70 °F 59 °F (1899)
Degree Days  
Heating Degree Days 0 0  
Month to date heating degree days 0 0  
Since 1 June heating degree days 0 0  
Since 1 July heating degree days 1040 1218  
Cooling Degree Days 18 15  
Month to date cooling degree days 326 284  
Year to date cooling degree days 858 794  
Since 1 June cooling degree days 326 284  
Growing Degree Days 32 (Base 50)    
Moisture  
Dew Point 71 °F    
Average Humidity 71    
Maximum Humidity 93    
Minimum Humidity 49    
Precipitation  
Precipitation T in 0.25 in 4.53 in (1976)
Month to date precipitation 5.39 4.44  
Year to date precipitation 16.39 20.43  
Snow  
Snow 0.00 in 0.00 in 0.00 in ()
Month to date snowfall 0.0 0.0  
Since 1 June snowfall 0.0 0.0  
Since 1 July snowfall 0.0 0.0  
Snow Depth 0.00 in    
Sea Level Pressure  
Sea Level Pressure 30.06 in    
Wind  
Wind Speed 4 mph (South)    
Max Wind Speed 16 mph    
Max Gust Speed 22 mph    
Visibility 9 miles    
Events Rain    
T = Trace of Precipitation, MM = Missing Value Source: NWS Daily Summary

Daily Weather History Graph

Daily Weather History Graph

Search for Another Location

Airport or City:

Trip Planner

Search our weather history database for the weather conditions in past years. The results will help you decide how hot, cold, wet, or windy it might be!

Date:

Astronomy

Jun. 20, 2013 Rise Set
Actual Time 6:29 AM EDT 8:32 PM EDT
Civil Twilight 6:01 AM EDT 8:59 PM EDT
Nautical Twilight 5:28 AM EDT 9:32 PM EDT
Astronomical Twilight 4:53 AM EDT 10:08 PM EDT
Moon 5:40 PM EDT (6/20) 3:45 AM EDT (6/20)
Length of Visible Light 14h 57m
Length of Day
14h 03m
Waxing Gibbous, 89% of the Moon is Illuminated
Jun 20
Waxing Gibbous
Jun 23
Full
Jun 30
Last Quarter
Jul 8
New
Jul 15
First Quarter

Hourly Weather History & Observations

Time (EDT) Temp. Heat Index Dew Point Humidity Pressure Visibility Wind Dir Wind Speed Gust Speed Precip Events Conditions
12:53 AM 77.0 °F - 72.0 °F 84% 30.04 in 10.0 mi Calm Calm - N/A   Clear
1:53 AM 75.0 °F - 72.0 °F 90% 30.02 in 10.0 mi SE 3.5 mph - N/A   Clear
2:53 AM 75.0 °F - 72.0 °F 90% 30.01 in 10.0 mi Calm Calm - N/A   Partly Cloudy
3:53 AM 73.0 °F - 71.1 °F 93% 30.00 in 10.0 mi Calm Calm - N/A   Clear
4:53 AM 73.9 °F - 71.1 °F 91% 30.01 in 9.0 mi Calm Calm - N/A   Clear
5:53 AM 73.0 °F - 71.1 °F 93% 30.02 in 7.0 mi Calm Calm - N/A   Clear
6:48 AM 73.4 °F - 71.6 °F 94% 30.06 in 6.0 mi Calm Calm - N/A   Partly Cloudy
6:53 AM 73.9 °F - 72.0 °F 93% 30.05 in 6.0 mi Calm Calm - N/A   Partly Cloudy
7:53 AM 78.1 °F - 73.9 °F 87% 30.06 in 10.0 mi WSW 3.5 mph - N/A   Clear
8:53 AM 79.0 °F - 73.9 °F 84% 30.08 in 10.0 mi South 4.6 mph - N/A   Clear
9:53 AM 80.1 °F 84.5 °F 73.9 °F 81% 30.09 in 10.0 mi SW 4.6 mph - N/A   Clear
10:53 AM 84.0 °F 91.2 °F 73.9 °F 72% 30.09 in 10.0 mi WSW 6.9 mph - N/A   Clear
11:53 AM 87.1 °F 92.8 °F 71.1 °F 59% 30.09 in 10.0 mi West 5.8 mph - N/A   Clear
12:21 PM 89.6 °F 94.7 °F 69.8 °F 52% 30.09 in 10.0 mi West 8.1 mph - N/A   Partly Cloudy
12:53 PM 90.0 °F 95.4 °F 70.0 °F 52% 30.08 in 10.0 mi SW 8.1 mph - N/A   Partly Cloudy
1:53 PM 91.0 °F 95.6 °F 69.1 °F 48% 30.06 in 10.0 mi Variable 3.5 mph - N/A   Clear
2:35 PM 89.6 °F 91.1 °F 64.4 °F 43% 30.06 in 10.0 mi WSW 3.5 mph - N/A   Scattered Clouds
2:53 PM 88.0 °F 92.1 °F 69.1 °F 53% 30.05 in 10.0 mi South 11.5 mph 19.6 mph N/A   Mostly Cloudy
3:53 PM 89.1 °F 92.9 °F 68.0 °F 50% 30.04 in 10.0 mi Variable 4.6 mph - N/A   Clear
4:53 PM 82.0 °F 85.9 °F 70.0 °F 67% 30.04 in 10.0 mi NE 4.6 mph - N/A   Clear
5:53 PM 81.0 °F 84.4 °F 70.0 °F 69% 30.04 in 10.0 mi East 6.9 mph - N/A   Partly Cloudy
6:53 PM 79.0 °F - 71.1 °F 77% 30.06 in 10.0 mi NE 8.1 mph - N/A   Clear
7:53 PM 78.1 °F - 71.1 °F 79% 30.09 in 10.0 mi Calm Calm - N/A   Scattered Clouds
8:14 PM 78.8 °F - 71.6 °F 78% 30.10 in 10.0 mi SSE 5.8 mph - N/A   Overcast
8:53 PM 79.0 °F - 72.0 °F 79% 30.08 in 10.0 mi ENE 3.5 mph - N/A   Overcast
9:53 PM 77.0 °F - 73.9 °F 90% 30.08 in 8.0 mi ENE 8.1 mph - 0.00 in Rain Light Rain
10:53 PM 75.9 °F - 73.0 °F 91% 30.09 in 9.0 mi Calm Calm - 0.00 in   Partly Cloudy
11:53 PM 75.0 °F - 72.0 °F 90% 30.10 in 9.0 mi South 3.5 mph - N/A   Clear